Flag for South Africa Weather past 2 weeks in Thabazimbi, South Africa

Now
81 °F

Passing clouds.


Feels Like: 79 °F
Forecast: 38 / 83 °F
Wind: 3 mph from Southeast

Location: Seretse Khama International Airport

Current Time: May 30, 2015 at 5:27:16 PM

Latest Report: May 30, 2015 at 5:00 PM


Visibility: N/A

Pressure: 30.09 "Hg

Humidity: 12%

Dew point: 23 °F

Location of ThabazimbiLocation

Historic Weather in Thabazimbi — Graph

°F

Thabazimbi temperature yesterday

Maximum temperature yesterday: 82 °F (at 2:00 PM)
Minimum temperature yesterday: 41 °F (at 7:00 AM)
Average temperature yesterday: 63 °F

Past Weeks' High & Low Weather Summary

 TemperatureHumidityPressure
High90 °F (May 15, 4:00 PM)82% (May 23, 5:00 AM)30.42 "Hg (May 23, 5:00 AM)
Low41 °F (May 29, 7:00 AM)10% (May 16, 3:00 PM)30.09 "Hg (May 15, 4:00 PM)
Average64 °F39%30.23 "Hg
* Reported May 15 4:00 PM — May 30 4:00 PM, Thabazimbi, Weather by CustomWeather, © 2015

Note: Actual official high and low records may vary slightly from our data, if they occured in-between our weather recording intervals... More about our weather records

Advertising

Thabazimbi weather history for previous 24 hours

 ConditionsComfort  
Time TempWeatherWind HumidityBarometerVisibility
4:00 PM
Sat, May 30
81 °FSunny.1 mph13%30.09 "Hg10 mi
3:00 PM82 °FSunny.5 mph12%30.09 "Hg10 mi
2:00 PM82 °FSunny.3 mph12%30.12 "Hg10 mi
1:00 PM81 °FSunny.3 mph13%30.15 "Hg10 mi
12:00 PM79 °FSunny.5 mph15%30.18 "Hg10 mi
11:00 AM75 °FSunny.2 mph16%30.21 "Hg10 mi
10:00 AM68 °FSunny.2 mph21%30.21 "Hg10 mi
9:00 AM59 °FPassing clouds.3 mph29%30.21 "HgN/A
8:00 AM50 °FPassing clouds.3 mph43%30.21 "HgN/A
7:00 AM43 °FSunny.3 mph57%30.18 "Hg10 mi
6:00 AM45 °FSunny.5 mph49%30.15 "Hg10 mi
5:00 AM45 °FClear.5 mph49%30.15 "Hg10 mi
4:00 AM46 °FClear.5 mph50%30.15 "Hg10 mi
3:00 AM46 °FClear.6 mph50%30.15 "Hg10 mi
2:00 AM54 °FClear.5 mph38%30.15 "Hg10 mi
12:00 AM50 °FClear.2 mph43%30.18 "Hg10 mi
11:00 PM
Fri, May 29
55 °FClear.1 mph36%30.18 "Hg10 mi
10:00 PM59 °FClear.5 mph31%30.18 "Hg10 mi
9:00 PM63 °FPassing clouds.3 mph27%30.18 "HgN/A
8:00 PM64 °FClear.3 mph28%30.15 "Hg10 mi
7:00 PM70 °FClear.6 mph20%30.15 "Hg10 mi
6:00 PM73 °FClear.2 mph17%30.12 "Hg10 mi
5:00 PM81 °FClear.3 mph12%30.12 "Hg10 mi
Weather by CustomWeather, © 2015

See weather overviewHow to use our weather pages